Location: Blue Mountain Vista Observatory
(40.6992°N, 75.9422°W)
Time: 12:03:36
(UTC-04:00)

Daily predictions for brighter satellites

Satellite Brightness Start Highest point End
(mag) Time Altitude Azimuth Time Altitude Azimuth Time Altitude Azimuth
Cosmos 1666 3.2 20:57:46 10° NNW 21:01:40 66° W 21:05:30 10° S
COSMOS 2455 2.8 20:55:49 10° SSW 21:01:49 80° ESE 21:07:51 10° NNE
ERS-1 Rocket 3.0 20:59:21 10° SSE 21:04:20 73° ENE 21:09:22 10° N
CZ-4 DEB 3.9 21:03:23 10° S 21:06:30 45° W 21:09:38 10° NNW
BREEZE-M DEB (TANK) 2.7 21:09:06 10° WNW 21:11:35 38° SW 21:13:38 10° SSE
GRACE-1 4.0 21:11:59 10° N 21:14:48 57° E 21:17:37 10° S
SJ-11-01 4.3 21:10:19 10° SSE 21:14:58 84° ENE 21:19:41 10° NNW
GRACE-2 4.0 21:12:25 10° N 21:15:14 57° E 21:18:03 10° S
Envisat 3.2 21:17:28 10° SSE 21:22:25 57° ENE 21:27:24 10° N
GEOS 3 Rocket 3.7 21:18:27 10° SE 21:23:43 85° SW 21:28:58 10° NW
Cosmos 407 Rocket 3.9 21:20:06 10° S 21:25:00 41° ESE 21:29:52 10° NNE
Cosmos 1515 3.6 21:29:51 10° S 21:33:43 81° E 21:37:35 10° N
CZ-2C R/B 2.7 21:32:23 10° SSW 21:34:16 23° W 21:36:10 10° NW
MetOp-A 4.4 21:31:36 13° SE 21:36:15 52° ENE 21:41:27 10° N
SL-27 R/B 4.0 21:36:56 16° ESE 21:37:23 16° E 21:39:34 10° ENE
Cosmos 1825 Rocket 3.6 21:34:28 10° S 21:38:51 63° E 21:43:13 10° NNE
UNK 4.4 21:33:36 10° NNE 21:39:02 54° ESE 21:44:44 10° S
Cosmos 1066 Rocket 4.3 21:36:07 10° S 21:41:46 67° E 21:47:34 10° NNE
COSMOS 2406 4.4 21:39:25 15° SE 21:42:29 23° E 21:46:52 10° NE
Cosmos 1943 Rocket 3.0 21:41:28 10° N 21:46:36 37° ENE 21:50:21 17° ESE
Cosmos 1812 Rocket 4.5 21:42:42 10° NNW 21:46:56 48° W 21:51:12 10° SSW
Lacrosse 4 Rocket 1.3 21:43:57 10° SSW 21:47:59 86° WNW 21:52:06 10° NNE
Cosmos 2084 4.4 21:50:35 10° NNW 21:54:24 35° NE 21:56:59 18° ESE
Atlas Centaur 2 3.5 21:48:48 10° WSW 21:55:11 37° S 22:00:12 19° SE
SeaSat 1 2.6 21:52:49 20° SE 21:56:14 65° ENE 22:01:09 10° NNW
Meteor 1-22 Rocket 4.3 21:52:07 10° N 21:57:47 73° E 22:02:15 18° SSE
Cosmos 1943 3.6 21:52:27 10° SSW 21:58:04 66° WNW 22:03:46 10° NNE
H-2A R/B 3.5 21:54:26 10° SSW 21:58:22 34° W 22:02:23 10° NNW
ISS -0.4 21:56:19 10° WNW 21:58:50 20° NNW 22:01:22 10° NNE
CZ-4C R/B 4.5 22:00:19 22° ESE 22:02:04 30° ENE 22:05:35 10° N
SL-23 DEB 4.4 22:00:10 10° SW 22:07:10 81° SE 22:11:11 10° ENE
USA 81 4.3 22:07:26 10° N 22:12:41 67° W 22:17:13 14° S
CZ-4B R/B 3.5 22:08:42 10° NNE 22:13:52 89° E 22:19:07 10° SSW
CZ-4 R/B 3.9 22:09:48 10° NNE 22:14:48 64° ESE 22:18:13 20° S
Cosmos 1953 3.1 22:12:24 10° N 22:16:05 35° ENE 22:17:07 30° ESE
PSLV R/B 3.2 22:16:35 10° W 22:20:07 80° SSW 22:21:15 41° ESE
Terra 2.8 22:19:03 24° ESE 22:20:52 32° ENE 22:25:05 10° N
ARGOS 3.1 22:18:01 26° SSE 22:21:11 76° ENE 22:26:38 10° N
ATLAS 3B R/B 3.4 22:15:24 10° SW 22:23:01 63° NW 22:30:29 10° NNE
Cosmos 1346 Rocket 3.7 22:19:51 10° SSW 22:23:37 47° WNW 22:27:27 10° N
SPOT 5 3.8 22:21:02 14° SSW 22:24:25 36° W 22:28:26 10° NNW
USA 245 4.1 22:21:15 22° S 22:24:59 79° WSW 22:29:48 10° NNW
Cosmos-2242 3.2 22:22:08 10° N 22:26:29 60° E 22:28:01 37° SE
Cosmos 1850 Rocket 4.4 22:24:44 30° SSE 22:26:36 42° ESE 22:31:30 10° NNE
Cosmos 1842 3.1 22:25:38 36° S 22:27:09 75° E 22:31:04 10° NNE
Cosmos 1953 Rocket 4.4 22:23:19 10° SSW 22:27:36 50° W 22:31:56 10° N
Cosmos 1140 Rocket 3.5 22:26:31 26° S 22:29:25 59° ESE 22:34:34 10° NNE
Cosmos 1570 Rocket 4.4 22:26:52 10° N 22:32:07 53° ENE 22:34:19 33° SE
H-2A R/B 2.4 22:33:42 33° SE 22:35:34 49° ENE 22:40:29 10° N
NOSS 3-2 (A) 4.2 22:35:29 29° SE 22:36:15 30° ESE 22:41:45 10° NE
Meteor 1-21 4.5 22:31:59 13° SSW 22:37:12 72° W 22:43:02 10° N
Lacrosse 5 4.5 22:34:57 10° NNW 22:37:45 15° NNE 22:40:32 10° NE
Cosmos 1607 3.9 22:32:57 14° SSW 22:38:24 61° ESE 22:44:31 10° NE
SL-8 R/B 4.1 22:33:46 10° WNW 22:38:34 59° NNE 22:41:05 27° E
Cosmos 2369 Rocket 3.6 22:35:57 10° NW 22:40:51 31° WSW 22:44:35 15° SSW
USA 234 3.3 22:37:09 26° ESE 22:41:08 74° NE 22:47:41 10° NW
SPOT 1/Viking Rocket 4.1 22:41:55 24° SSW 22:44:52 51° W 22:49:53 10° NNW
YAOGAN 6 4.1 22:43:54 23° SW 22:45:30 33° W 22:48:55 10° NNW
Cosmos 2279 Rocket 4.2 22:40:14 10° NNW 22:46:28 69° W 22:50:14 25° S
Cosmos 614 Rocket 4.1 22:48:02 41° SSE 22:49:29 55° ESE 22:54:35 10° NNE
SL-08 RB Rocket 4.0 22:51:27 36° SSW 22:53:08 59° W 22:57:36 10° NNW
NOAA 11 4.5 22:51:02 30° S 22:53:41 61° W 22:59:04 10° NNW
SAR-Lupe-2 3.4 22:58:16 83° SE 22:58:22 86° ENE 23:01:58 10° NNW
Spot 2 4.4 22:54:18 10° NNE 22:59:12 69° ESE 23:00:35 47° SSE
Cosmos 1340 3.6 23:00:50 35° ENE 23:00:50 35° ENE 23:03:44 10° NNE
Meteor 2-5 Rocket 4.2 23:00:29 39° SE 23:01:45 45° E 23:07:12 10° NNE
Cosmos 1544 3.5 22:58:23 10° N 23:01:55 52° ENE 23:01:55 52° ENE
CARTOSAT-1 3.4 23:02:00 60° SSE 23:02:46 90° WSW 23:07:08 10° NNW
CZ-4C R/B 2.5 23:03:35 41° ESE 23:03:42 41° ESE 23:09:08 10° NE
Cosmos 1758 3.7 23:00:46 10° NNW 23:04:50 60° W 23:05:36 50° SW
Okean 3 Rocket 3.9 23:08:05 46° E 23:08:05 46° E 23:12:17 10° NNE
USA 238 DEB 4.1 23:03:31 10° SW 23:10:34 68° NW 23:17:38 10° NNE
USA 238 4.0 23:03:36 10° SW 23:10:40 68° NW 23:17:44 10° NNE
DMSP B5D2-2 4.0 23:11:04 10° NNE 23:16:22 85° WNW 23:18:08 44° SSW
Cosmos 1470 2.9 23:15:46 10° N 23:19:20 63° NE 23:19:20 63° NE
Cosmos 1805 4.0 23:16:20 10° NNW 23:20:06 44° W 23:20:29 42° WSW
IGS 5A 3.5 23:19:53 63° SW 23:20:11 66° WSW 23:24:21 10° NNW
COSMOS 2487 2.9 23:24:51 61° NNW 23:24:51 61° NNW 23:28:05 10° NNE
COSMOS 2406 4.0 23:21:23 13° SW 23:26:23 50° WNW 23:31:59 10° NNE
Cosmos 1943 Rocket 3.4 23:25:23 10° NW 23:30:12 31° WSW 23:31:53 26° SW
ALOS 2 4.4 23:32:11 19° ENE 23:32:30 19° ENE 23:35:37 10° NNE
Cosmos 1842 Rocket 4.1 23:28:23 10° NNW 23:32:37 48° W 23:33:08 46° WSW
Cosmos 1818 4.2 23:27:46 10° NNW 23:33:05 48° NE 23:34:29 39° E
Cosmos 2082 Rocket 3.7 23:34:49 21° E 23:34:49 21° E 23:38:07 10° NE
ISS 0.0 23:34:49 10° NNW 23:36:14 12° N 23:37:40 10° NNE
CZ-4B R/B 4.0 23:37:33 15° ENE 23:37:33 15° ENE 23:39:23 10° NNE
Cosmos 1656 Rocket 3.9 23:31:36 10° NNW 23:37:11 59° WSW 23:38:15 50° SSW
H-2A R/B 4.4 23:40:09 10° NE 23:41:37 18° ENE 23:41:37 18° ENE
Atlas Centaur 2 4.1 23:37:59 10° WSW 23:42:50 25° SW 23:42:50 25° SW
NOSS 3-2 (C) 3.3 23:43:08 52° SSW 23:44:43 76° ESE 23:51:21 10° NE
Cosmos 1553 Rocket 4.5 23:40:24 10° N 23:46:34 48° ENE 23:47:54 42° ESE
Cosmos 1707 3.3 23:50:19 58° NW 23:50:19 58° NW 23:53:43 10° N
Cosmos 1076 Rocket 3.9 23:56:04 54° NE 23:56:04 54° NE 23:59:32 10° NNE
Lacrosse 5 rocket 4.3 23:55:16 10° N 23:57:15 13° NNE 23:59:17 10° NE
